Showing default

COSMOS 1174, 11765

Orbit data source: Space-Track

COSMOS 1174, 11765 is a payload satellite owned by PKO (CIS) in LEO that was launched on Fri, 18 Apr 1980 UTC via a TSIKLON-2 launch vehicle from the Tyuratam Missile And Space Complex (TTMTR). Payloads include a variety of satellites, spacecraft, and rockets equipped with specific instruments for various scientific and technological missions. These include communications satellites like Starlink; space stations such as the ISS; scientific satellites like the Hubble; Earth observation satellites from companies like Planet Labs, Umbra, and HawkEye 360; GPS; miniature CubeSats for education and research; and military/defense satellites.

Loading next visibility...
COSMOS 1174 details
Identifier
11765, 1980-030A
Orbit
LEO
Last TLE update18 hours ago
Origin
Flag of CISPKO (CIS)
ManufacturerKometa
MissionDefense Weapon
Bus & MotorIS, Unknown motor
Mass1,400 kg wet, ~1,400 kg dry
Launch date (UTC)
1980-04-18 (45 years ago)
Launch vehicle
TSIKLON-2
Launch site
Tyuratam Missile And Space Complex (TTMTR)
Object type
Payload
Rocket body
Debris
Shape & HBRCyl, 4 m
Radar Cross Section7.854 m², Large (>1 m²)

Expand to show TLE details & history

TLE from 18 hours ago
0 COSMOS 1174
1 11765U 80030A   25014.90429701  .00005051  00000-0  24770-3 0  9999
2 11765  66.0811 239.9920 0487989  67.2619 297.9288 14.52436637303501
Epoch: 2025-01-14T21:42Z
Definitive object data (Epoch: 2025-01-14T21:42:11.261Z)
Latitude-0.00008°
Longitude159.84074°
Altitude571.219 km
Speed7.655 km/s
True Right ascension15h 59m 58s
True Declination0° 00' 00"
Sunlit
Object was in daylight at TLE epoch
Visualization TLE readout
Latitude-54.12146°
Longitude120.16785°
Altitude944.987 km
Speed7.27 km/s
Apparent Right ascension08h 12m 04s
Apparent Declination-70° 48' 10"
Sunlit
Object is in daylight
Visualization observer readout
Local Sidereal Time16:16:27
Azimuth204.588° SW
Elevation-47.411°
Doppler factor1
Orbital elements
Apogee altitude1,062.32 km
Perigee altitude369.935 km
Semi-major axis7,094.264 km
Eccentricity0.0487989
Inclination66.0811°
RAAN239.992°
Arg. of periapsis67.2619°
True anomaly292.8497°
Mean anomaly297.9288°
Eccentric anomaly295.40317°
Mean motion3.6323 °/min
BSTAR0.0002477
Orbital period99.11 mins
Loading maneuver chart data...

COSMOS 1174 Visibility forecast

Observer location: undefined°, undefined

Span
Click to sort rows by Start time (UTC) header in descending order
Start Az.
Max El. time (UTC)
Max El. Az.
Max El.
End time (UTC)
End Az.
4 mins2025-01-15 16:01:34.218Z167.834° S2025-01-15 16:03:34.218Z113.999° SE25.761°2025-01-15 16:05:34.218Z60.107° ENE
4 mins2025-01-16 00:40:34.218Z28.933° NE2025-01-16 00:41:34.218Z52.406° ENE22.136°2025-01-16 00:44:34.218Z103.899° ESE
5 mins2025-01-16 02:21:34.218Z287.197° WNW2025-01-16 02:23:34.218Z240.774° WSW26.155°2025-01-16 02:26:34.218Z191.347° SSW
|